sat.trackr.live / text

‹ back to catalog

STARLINK-30370

NORAD 57751 · 2023-131V

PAYLOAD ACTIVE UNKNOWN

§ Identity

Operator
Country
US
Launch date
2023-09-01
Launch site
AFETR
Launch vehicle
Mass (kg)
RCS (m²)

Purposes: comms

External: N2YO · Heavens-Above · Gunter

§ Orbital elements

Epoch: 2026-05-24T22:47:16.605600Z

Period
94.11 min
Inclination
43.0001°
Eccentricity
0.0001878
Mean motion
15.30068023 rev/d
Perigee alt
474.3 km
Apogee alt
476.9 km
Semi-major
6,853.7 km
B*
5.1705e-4
RAAN
86.1063°
Arg perigee
204.7276°
Mean anomaly
155.3487°
Rev number
15,176

§ Raw data

STARLINK-303701 57751U 23131V   26144.94949775  .00015121  00000+0  51705-3 0  99962 57751  43.0001  86.1063 0001878 204.7276 155.3487 15.30068023151762

JSON: /api/v1/satellites/57751 · /tle

For live sub-satellite position, see the globe view (requires WebGL).

§ Visibility from observer

Set your observer location to see the next 7 days of passes ≥ 10°. The values pass through the URL so the page stays shareable.

No JS? Fill the form by hand. The geolocation button needs JavaScript.